Theta_e
308 307 306 306 304 301 298 296 295 297 298 299 301 303 311 312 315 317 318 321 321 322 322 322 323 318 322 323 325 325 322 321 319 320 321 322 320 320 320 321 320 320 318
306 306 305 304 303 301 299 296 298 300 301 302 302 303 311 313 315 316 317 318 324 323 323 324 323 320 320 323 325 325 323 319 319 320 321 320 320 321 321 318 317 316 315
305 305 305 304 302 301 300 295 300 301 302 302 302 302 308 311 313 315 317 317 319 323 323 323 319 319 321 323 324 324 323 320 320 321 320 320 319 321 316 316 317 315 315
305 304 304 303 302 301 299 295 298 300 301 302 302 302 305 309 312 314 316 316 320 323 321 319 319 321 322 323 324 322 322 322 321 321 321 320 318 318 318 317 317 317 316
305 304 303 303 301 300 299 295 296 298 300 301 302 302 303 306 310 312 314 318 319 320 323 321 321 323 324 324 323 323 323 322 320 320 320 320 319 318 318 317 316 316 317
305 304 304 303 302 300 299 294 296 299 300 301 302 302 302 304 305 310 313 317 317 318 318 320 322 323 323 323 323 323 323 322 321 320 320 319 318 317 318 318 317 318 318
305 304 303 302 302 300 298 294 296 300 302 301 302 302 303 303 304 306 312 313 316 317 317 317 317 321 322 322 323 323 322 322 321 321 320 319 319 318 317 318 319 318 318
305 304 303 302 301 299 297 294 295 298 301 301 302 302 303 303 302 302 308 313 315 316 316 317 317 320 322 321 322 323 322 322 322 320 320 320 319 318 318 319 320 319 318
304 303 302 301 300 299 296 294 295 297 301 302 303 303 303 303 303 303 306 311 313 315 317 317 318 318 321 323 321 322 322 322 319 318 319 319 319 320 320 320 320 320 318
302 302 301 300 299 298 295 294 295 295 300 301 302 303 303 303 303 303 303 304 311 313 315 316 317 317 318 322 322 322 322 321 320 319 319 319 316 320 317 318 317 319 319
300 300 299 299 298 297 295 294 295 300 301 302 302 302 303 303 303 303 303 303 305 311 314 316 317 318 319 321 322 322 322 321 321 319 318 318 320 319 318 318 319 319 318
301 299 298 298 297 296 295 294 295 302 302 302 303 303 303 303 302 302 303 303 303 305 312 316 318 318 319 320 321 320 321 320 319 319 318 317 317 316 317 319 319 318 318
301 299 298 297 297 296 295 294 296 302 302 303 303 303 303 302 302 301 302 303 303 303 309 314 317 318 319 318 317 317 317 320 319 318 318 318 319 319 318 317 317 317 316
302 300 298 297 297 296 295 295 297 302 303 303 303 303 303 303 302 301 301 302 303 303 305 313 316 317 317 318 318 317 316 317 318 318 318 319 317 317 317 317 316 315 316
302 301 299 297 296 295 296 296 297 302 303 303 304 304 304 303 303 303 302 302 303 303 304 309 313 315 317 318 318 318 317 316 318 318 317 317 316 316 315 315 315 315 315
303 299 300 298 296 296 300 298 298 302 303 303 303 304 304 304 304 305 304 304 305 306 306 309 312 313 315 315 315 315 316 316 317 316 315 314 314 314 313 313 313 312 311
300 301 301 299 297 297 302 302 303 303 303 303 303 303 304 304 305 305 305 307 307 309 310 311 313 313 313 313 315 315 315 315 314 314 313 313 312 312 312 311 310 308 303
301 302 302 301 298 297 303 303 303 303 303 302 300 302 303 304 305 305 306 307 309 309 310 311 312 312 313 313 312 312 312 313 313 311 311 310 309 309 308 308 307 301 296
303 303 302 301 299 297 302 303 302 302 302 301 297 298 303 303 304 305 305 306 306 308 309 310 311 311 310 310 311 311 311 311 308 308 307 307 307 305 303 301 296 295 295
304 303 302 301 300 298 297 301 302 302 301 300 298 295 297 303 304 304 305 305 306 307 307 307 307 309 308 309 309 310 310 309 307 307 306 305 303 300 297 296 295 294 294
303 302 302 301 301 299 298 297 298 300 301 300 299 296 295 296 302 303 304 305 305 305 307 308 307 308 308 307 306 306 307 307 307 307 306 302 297 296 295 294 294 294 294
302 302 302 301 301 299 298 298 297 296 297 297 297 297 295 294 294 297 301 304 304 304 304 304 305 305 305 305 305 305 305 305 305 304 303 301 296 295 294 294 294 294 294
302 302 302 301 301 300 299 298 296 296 296 296 296 295 295 294 294 294 294 298 302 303 304 304 304 304 305 305 305 305 304 303 302 300 298 298 295 294 294 294 294 294 294
302 302 302 302 301 301 300 299 297 297 297 296 296 295 295 295 295 294 294 294 293 297 303 304 304 304 304 304 304 304 303 301 300 298 297 295 294 294 294 294 293 293 293
303 303 303 302 302 301 301 301 300 299 299 298 297 297 296 296 296 295 295 294 294 294 293 294 298 301 301 299 299 300 299 297 295 295 296 296 294 294 294 294 293 293 293
303 303 304 303 303 303 302 302 302 302 301 301 301 300 299 299 298 297 296 296 295 295 294 294 293 293 293 294 295 296 296 295 294 294 294 293 293 293 293 293 293 293 293
Wind_Speed
9 10 14 18 17 16 16 18 18 16 15 14 12 5 7 9 10 10 7 8 18 27 35 34 29 27 32 30 28 26 23 21 18 15 12 12 8 8 9 6 6 6 6
8 9 11 12 15 18 17 17 16 13 11 10 11 7 1 5 4 3 3 7 14 26 31 30 31 28 29 27 27 24 25 23 21 20 13 7 9 11 7 6 7 8 8
7 8 12 14 17 17 18 16 14 12 11 12 9 6 3 0 2 1 2 5 6 28 34 29 28 26 28 26 24 22 22 25 23 19 10 7 7 14 8 5 3 3 3
8 8 10 13 15 17 16 15 13 12 11 11 9 6 1 1 3 2 2 3 0 29 25 28 27 23 25 26 24 20 21 21 21 21 17 8 11 8 7 5 4 5 5
8 9 11 13 14 13 15 14 13 13 10 10 9 6 2 3 4 4 2 8 12 6 22 28 26 24 25 25 23 21 19 19 19 20 20 16 12 10 7 8 10 11 10
7 9 10 11 15 14 15 13 12 11 9 9 9 6 4 3 4 5 3 10 12 11 10 13 19 20 19 21 22 22 20 19 18 15 15 17 16 12 12 13 13 13 14
8 8 9 12 14 14 12 12 11 9 8 8 8 5 4 4 2 5 5 7 12 14 11 17 11 14 18 19 19 22 21 21 18 16 15 14 13 12 12 11 12 14 16
6 10 11 10 12 12 11 10 9 8 9 9 7 6 4 5 4 2 6 7 10 13 14 11 12 14 16 13 15 18 18 20 18 14 14 14 12 13 14 16 14 14 13
8 11 11 10 9 10 11 9 8 7 6 7 6 6 5 3 3 3 3 6 9 13 11 13 10 10 15 16 14 18 24 19 15 15 14 12 14 14 11 14 18 12 7
6 8 11 10 8 8 9 8 8 7 5 7 6 4 5 4 2 1 3 4 6 11 13 9 5 2 15 19 16 17 17 19 20 21 20 18 22 13 10 12 4 10 14
7 6 8 8 7 6 7 7 6 5 6 6 6 6 5 3 1 2 3 4 6 7 14 10 5 3 11 19 18 15 15 15 18 11 9 6 10 16 15 12 9 8 10
6 6 6 5 6 5 5 5 4 4 5 7 7 7 6 5 3 1 3 5 8 8 13 14 12 9 13 13 18 18 16 7 8 10 10 7 11 8 11 9 7 7 8
7 6 6 5 5 5 6 3 2 4 5 7 8 8 9 8 6 3 2 5 9 10 10 13 14 12 15 15 13 10 9 15 13 11 10 8 10 10 9 4 5 7 6
8 6 6 5 5 4 3 3 3 3 5 6 7 8 10 10 8 7 6 7 9 10 11 13 13 13 13 11 9 8 8 9 9 11 10 7 5 6 5 6 6 6 8
14 8 7 5 5 2 2 2 3 4 5 6 8 8 10 11 11 11 10 12 11 11 13 13 12 12 11 10 8 9 8 7 6 8 7 7 6 6 5 3 3 4 6
11 10 7 5 4 2 1 4 8 6 5 6 6 8 10 12 12 13 12 12 13 13 13 13 12 11 10 8 6 6 8 9 9 6 7 6 6 5 4 3 4 5 5
11 10 7 5 4 3 4 5 8 7 5 5 5 6 8 12 12 12 13 14 13 14 14 14 13 12 10 8 11 10 8 7 6 5 5 4 4 4 3 4 4 5 6
11 10 9 7 6 6 6 8 7 6 4 4 5 5 7 7 11 11 11 11 12 12 12 11 13 12 11 12 10 8 8 7 5 4 3 3 3 4 4 5 6 6 7
10 8 9 8 6 7 7 7 7 5 4 4 4 4 4 5 7 8 8 9 10 9 9 10 10 9 10 7 6 8 8 7 6 4 3 5 7 6 6 6 6 6 7
13 11 10 11 9 8 8 8 6 5 4 3 4 3 4 5 6 6 6 7 8 9 9 9 7 6 7 6 7 7 9 8 7 6 5 6 7 7 7 7 7 7 7
14 11 11 10 10 9 8 8 7 5 4 3 2 2 3 4 5 6 6 6 7 8 7 10 9 9 9 8 5 5 7 6 7 8 8 6 6 7 7 7 8 9 9
16 12 12 12 12 11 9 8 6 8 6 4 4 3 2 2 3 4 6 8 8 7 7 8 8 7 7 7 7 6 7 8 9 8 8 8 8 8 8 9 10 11 12
13 13 12 12 12 11 10 8 9 9 8 7 5 4 4 3 3 5 6 7 8 11 11 10 10 10 9 9 10 10 10 10 10 10 9 10 10 10 11 12 12 12 12
11 12 13 13 12 11 10 9 12 11 10 9 8 8 6 6 5 5 6 7 8 9 11 13 13 13 13 13 13 13 13 12 12 12 13 12 12 12 13 14 15 15 16
12 12 12 12 11 11 11 12 12 13 11 10 10 10 10 9 8 8 8 8 9 10 11 13 15 15 14 13 14 14 14 13 13 15 16 16 15 15 15 16 17 18 19
14 14 13 14 12 12 12 13 15 15 15 15 14 13 13 12 12 12 12 11 10 12 13 13 14 15 14 16 17 17 17 17 17 19 19 18 17 17 17 18 19 21 22
Wind_Direction
288 278 296 304 315 319 313 317 322 325 324 321 320 272 231 249 254 274 270 292 216 201 206 210 204 203 209 205 200 199 201 193 193 192 199 217 245 262 269 255 266 258 260
291 293 293 304 310 314 317 317 327 333 327 319 318 322 234 228 255 286 335 287 222 193 201 202 194 196 206 200 198 196 193 198 196 198 200 213 218 221 215 260 250 258 244
288 280 285 295 302 310 317 324 330 334 338 327 323 312 221 101 54 341 285 320 263 180 198 198 182 189 206 199 193 196 197 194 197 209 195 175 187 175 178 192 266 261 225
295 279 273 283 301 310 322 329 331 332 347 336 332 332 280 24 42 37 41 270 45 169 165 177 177 181 192 195 195 199 198 200 204 206 199 185 184 175 171 193 209 242 236
293 292 295 307 307 319 329 336 333 333 345 348 341 344 11 37 74 49 59 168 198 143 144 172 180 188 191 191 197 201 194 198 206 207 205 196 194 209 190 203 222 245 267
290 307 299 306 313 329 329 336 340 346 351 355 339 353 345 38 86 91 122 167 183 202 200 148 181 181 184 189 197 205 204 198 203 209 210 210 216 228 228 230 238 247 253
305 304 301 306 313 315 331 336 347 352 2 5 358 356 342 326 111 113 126 159 173 174 177 203 202 202 198 197 199 196 201 205 210 207 205 214 230 251 256 245 244 246 252
289 312 313 312 309 316 337 342 349 356 358 16 11 355 345 306 310 96 151 167 173 157 173 172 206 204 193 201 212 194 193 200 200 213 222 227 236 253 266 263 254 260 241
316 316 314 316 324 325 333 346 349 1 11 30 17 358 355 342 327 312 184 159 181 168 164 179 175 200 195 196 202 210 212 207 224 220 222 237 251 260 280 262 271 251 245
310 311 314 320 325 327 333 348 354 358 17 17 34 27 17 16 331 277 226 183 171 190 178 174 167 230 203 196 197 209 205 207 203 210 218 243 253 244 280 265 252 207 231
310 307 308 318 319 332 336 351 5 16 24 29 27 27 32 359 16 186 182 189 196 182 176 175 175 227 198 196 195 188 195 206 207 190 158 239 226 208 231 245 245 231 236
310 309 308 315 318 328 353 354 17 58 36 29 23 27 39 36 6 42 163 181 196 184 161 171 155 162 141 175 198 210 209 206 192 183 212 217 225 238 241 251 235 238 236
292 290 299 298 312 340 336 3 38 71 45 37 33 32 42 31 42 49 129 166 184 180 173 154 157 160 144 145 141 149 148 172 190 218 226 236 242 256 239 187 191 215 222
291 267 277 290 290 319 338 340 98 100 62 57 48 52 59 49 50 65 83 144 162 171 169 164 158 163 160 164 171 177 189 221 225 222 218 213 195 189 181 217 227 212 210
246 254 256 268 271 293 336 150 139 122 97 70 54 55 67 67 65 65 80 104 120 140 155 157 153 152 158 155 165 172 189 190 172 168 165 167 174 196 203 217 240 222 224
212 201 219 242 240 191 39 152 153 146 109 80 66 59 79 78 74 80 91 100 107 118 127 136 144 151 151 149 164 149 146 149 145 160 163 172 194 217 218 209 206 207 228
179 194 195 207 199 169 137 148 150 150 135 111 100 84 79 102 91 90 98 101 109 118 126 134 142 150 153 152 145 138 144 150 154 169 181 166 174 196 199 221 220 224 219
194 190 192 195 199 177 157 158 154 147 138 116 107 118 105 102 114 110 105 113 116 128 133 140 141 145 147 148 150 164 162 178 195 174 156 179 198 218 238 242 239 225 200
202 194 194 191 193 190 180 172 168 158 148 129 111 127 145 128 125 124 136 133 133 141 140 143 145 156 158 145 155 162 159 175 174 194 236 233 237 249 247 223 219 211 189
200 201 203 200 191 196 195 194 193 186 170 152 125 120 131 160 157 147 146 147 158 168 177 172 182 179 161 178 189 186 201 203 222 227 237 233 242 237 229 218 203 190 182
196 202 206 204 194 193 200 201 208 199 206 192 162 146 135 153 175 192 189 179 179 177 182 189 202 203 196 201 228 229 224 226 241 251 241 243 248 235 221 210 201 192 187
201 204 201 199 202 199 200 205 200 215 219 224 232 229 213 199 184 194 210 214 213 204 197 197 203 212 222 223 227 240 242 246 254 254 251 251 240 223 220 217 206 198 195
193 193 195 197 203 209 208 202 195 221 225 227 230 236 247 244 242 234 219 222 229 230 228 230 229 229 236 239 244 252 254 255 259 261 262 258 251 230 218 214 215 212 213
200 202 205 206 207 209 213 208 216 223 226 230 238 243 239 248 255 257 263 255 240 240 241 242 246 247 247 252 258 256 258 254 255 259 257 255 248 239 233 227 224 222 220
223 220 223 225 221 221 218 221 231 240 243 243 244 251 254 256 257 256 258 264 266 263 257 252 250 251 251 250 248 249 251 251 252 255 257 262 261 253 247 242 237 234 231
237 232 235 236 228 233 230 232 237 245 250 254 255 260 263 265 267 268 267 266 263 270 271 267 266 265 264 260 259 257 256 258 256 254 257 260 259 255 256 253 247 243 243